Tracking 18844 objects as of 21-Nov-2017
HD Live streaming from Space Station
objects crossing your sky now

NAHUEL 1A

Track NAHUEL 1A now!
NAHUEL 1A is classified as:


NORAD ID: 24714
Int'l Code: 1997-002B
Perigee: 36,013.4 km
Apogee: 36,072.8 km
Inclination: 8.0 °
Period: 1,448.9 minutes
Semi major axis: 42414 km
RCS: 18.5843 m2 (large)
Launch date: January 30, 1997
Source: Argentina (ARGN)
Launch site: FRENCH GUIANA (FRGUI)

Coverage of Latin America and U.S., 18 Ku band transponders.
aabbcc
Your satellite tracking list
Your tracking list is empty




NASA's NSSDC Master Catalog

Two Line Element Set (TLE):
1 24714U 97002B   17324.89978317 -.00000265 +00000-0 +00000-0 0  9999
2 24714 007.9738 048.4354 0006995 173.5031 129.0004 00.99388820075938
Source of the keplerian elements: AFSPC